Home   Weather   Sunderland   Past weeks

Flag for United Kingdom Past Weather in Sunderland, England, United Kingdom — Yesterday and Last 2 Weeks

46 °F

Passing clouds.

Feels Like: 46 °F
Forecast: 47 / 51 °F
Wind: 1 mph from Northwest

Location: Newcastle

Current Time: Oct 22, 2016 at 9:56:58 AM

Latest Report: Oct 22, 2016 at 9:20 AM

Visibility: N/A

Pressure: 30.12 "Hg

Humidity: 100%

Dew Point: 46 °F

Location of SunderlandLocation

Past Weather in Sunderland — Graph


Sunderland Temperature Yesterday

Maximum temperature yesterday: 52 °F (at 12:50 PM)
Minimum temperature yesterday: 43 °F (at 8:20 PM)
Average temperature yesterday: 47 °F

High & Low Weather Summary for the Past Weeks

High59 °F (Oct 17, 1:50 PM)100% (Oct 8, 1:20 AM)30.48 "Hg (Oct 8, 1:20 AM)
Low41 °F (Oct 10, 12:20 AM)55% (Oct 17, 2:50 PM)29.65 "Hg (Oct 15, 7:20 AM)
Average49 °F91%30.12 "Hg
* Reported Oct 7 8:20 AM — Oct 22 8:50 AM, Sunderland, Weather by CustomWeather, © 2016

Note: Actual official high and low records may vary slightly from our data, if they occured in-between our weather recording intervals... More about our weather records


Sunderland Weather History for the Previous 24 Hours

Scroll right to see more
Time TempWeatherWind HumidityBarometerVisibility
8:50 AM
Sat, Oct 22
46 °FPassing clouds.1 mph100%30.12 "HgN/A
8:20 AM45 °FScattered showers. Passing clouds.1 mph100%30.12 "HgN/A
7:50 AM45 °FScattered showers. Passing clouds.1 mph100%30.12 "HgN/A
7:20 AM45 °FLight rain. Passing clouds.2 mph100%30.12 "HgN/A
6:50 AM43 °FLight rain. Passing clouds.No wind100%30.12 "HgN/A
6:20 AM43 °FLight rain. Passing clouds.No wind100%30.12 "HgN/A
5:50 AM43 °FPassing clouds.1 mph100%30.12 "Hg3 mi
5:20 AM43 °FPassing clouds.1 mph100%30.12 "HgN/A
4:50 AM43 °FPassing clouds.1 mph100%30.12 "HgN/A
4:20 AM43 °FPassing clouds.1 mph100%30.12 "HgN/A
3:50 AM43 °FPassing clouds.1 mph100%30.12 "HgN/A
3:20 AM43 °FPassing clouds.1 mph100%30.12 "HgN/A
2:50 AM43 °FPassing clouds.1 mph100%30.12 "HgN/A
2:20 AM43 °FPassing clouds.2 mph100%30.12 "HgN/A
1:50 AM43 °FPassing clouds.2 mph100%30.12 "HgN/A
1:20 AM43 °FPassing clouds.1 mph100%30.12 "HgN/A
12:50 AM43 °FSprinkles. Passing clouds.No wind100%30.12 "HgN/A
12:20 AM45 °FSprinkles. Partly cloudy.1 mph93%30.15 "HgN/A
11:50 PM
Fri, Oct 21
43 °FSprinkles. Passing clouds.1 mph100%30.15 "HgN/A
11:20 PM43 °FPassing clouds.3 mph100%30.15 "HgN/A
10:50 PM43 °FPassing clouds.1 mph100%30.15 "HgN/A
10:20 PM43 °FPassing clouds.2 mph100%30.15 "HgN/A
9:50 PM43 °FFog.1 mph100%30.15 "HgN/A
9:20 PM43 °FFog.1 mph100%30.15 "HgN/A
8:50 PM43 °FFog.3 mph100%30.15 "HgN/A
8:20 PM43 °FFog.1 mph100%30.15 "HgN/A
7:50 PM45 °FFog.1 mph100%30.15 "HgN/A
7:20 PM45 °FFog.1 mph93%30.15 "HgN/A
6:50 PM45 °FFog.1 mph100%30.15 "HgN/A
6:20 PM46 °FFog.2 mph93%30.15 "HgN/A
5:50 PM46 °FPassing clouds.2 mph93%30.15 "HgN/A
5:20 PM48 °FPassing clouds.3 mph87%30.15 "HgN/A
4:50 PM50 °FPassing clouds.6 mph88%30.15 "HgN/A
4:20 PM50 °FPassing clouds.3 mph82%30.15 "HgN/A
3:50 PM52 °FPassing clouds.3 mph72%30.15 "HgN/A
3:20 PM52 °FPassing clouds.2 mph77%30.15 "HgN/A
2:50 PM52 °FPassing clouds.3 mph82%30.15 "HgN/A
2:20 PM52 °FPassing clouds.5 mph88%30.15 "HgN/A
1:50 PM52 °FPassing clouds.2 mph82%30.15 "HgN/A
1:20 PM52 °FPassing clouds.2 mph88%30.15 "HgN/A
12:50 PM52 °FPassing clouds.1 mph88%30.15 "HgN/A
11:50 AM50 °FPartly sunny.1 mph94%30.18 "HgN/A
11:20 AM48 °FPartly sunny.2 mph100%30.18 "HgN/A
10:50 AM48 °FPassing clouds.2 mph100%30.18 "HgN/A
10:20 AM48 °FPassing clouds.2 mph94%30.18 "HgN/A
9:50 AM46 °FPassing clouds.1 mph100%30.18 "HgN/A
9:20 AM46 °FPassing clouds.2 mph100%30.18 "HgN/A
Weather by CustomWeather, © 2016

See weather overviewHow to use our weather pages